Theta_e
319 313 314 309 300 297 293 297 301 302 300 304 307 304 303 299 304 302 303 318 322 323 327 330 333 333 335 334 334 334 334 334 334 334 333 332 331 331 330 330 331 331 333 333 334 334 332 330 332
315 314 310 303 295 290 293 299 301 303 303 305 303 301 299 296 298 299 307 319 321 322 325 327 331 332 333 332 332 332 332 331 331 331 329 329 329 328 327 327 327 328 328 329 328 328 327 328 333
316 313 305 299 294 291 293 300 302 301 303 304 299 298 296 294 297 299 301 317 318 318 323 326 329 331 331 330 330 330 329 328 328 327 326 326 325 325 325 325 325 325 326 326 326 325 328 333 331
307 305 305 297 294 297 299 302 304 300 301 303 301 296 294 297 299 302 307 316 316 315 319 325 328 329 328 328 328 327 326 325 324 324 324 323 323 323 322 322 322 322 323 323 325 329 331 329 331
305 304 298 295 296 299 301 305 302 299 299 300 301 295 293 298 301 303 310 314 313 312 315 322 326 327 326 326 326 324 323 323 322 321 321 321 320 320 320 320 320 320 321 324 330 329 328 328 330
299 305 296 293 297 302 305 310 306 303 301 300 297 293 292 299 302 302 310 310 312 310 311 315 320 323 323 323 322 321 320 319 319 318 318 317 317 318 319 320 320 320 323 328 327 326 326 327 329
297 298 294 294 296 299 304 307 306 308 307 298 299 294 292 297 301 302 305 308 308 307 307 308 310 316 318 318 318 317 316 316 315 314 313 313 313 316 318 319 320 325 324 323 324 325 325 325 325
301 299 293 295 295 298 306 300 306 307 305 300 300 296 293 297 301 301 305 305 306 305 305 304 305 304 304 307 312 312 311 310 310 309 308 308 310 313 315 317 319 320 320 323 323 323 322 322 322
304 295 292 295 297 299 299 295 295 298 297 296 296 296 298 300 301 299 299 301 303 303 301 301 301 299 300 301 305 306 306 306 305 304 304 301 299 303 307 316 317 318 321 322 320 319 318 316 316
299 294 295 301 301 299 299 299 295 297 294 293 292 295 297 299 298 297 297 297 298 298 298 298 299 297 296 299 297 295 297 295 295 295 294 294 296 299 303 307 310 312 317 318 317 314 311 308 307
297 296 300 302 300 298 299 299 300 297 295 297 293 293 295 297 297 297 297 298 298 297 297 296 297 295 294 294 293 291 292 292 293 293 293 293 294 295 296 297 297 299 304 301 302 302 304 304 305
294 299 300 301 300 297 295 295 293 297 300 300 299 295 295 295 295 296 296 297 296 296 297 296 295 294 292 293 291 291 291 291 291 292 293 292 292 294 294 295 296 297 297 298 298 298 300 300 300
291 292 296 299 299 298 298 296 293 297 296 294 294 295 294 294 295 297 298 298 297 297 297 296 294 292 292 291 290 291 291 290 290 291 292 292 293 293 294 294 295 295 296 296 294 291 291 293 294
292 292 292 296 296 295 294 292 295 297 300 294 293 292 293 294 295 295 297 297 297 298 297 296 294 293 292 291 290 290 289 289 289 289 291 292 293 293 293 293 293 293 294 293 291 289 288 289 290
291 288 289 289 292 292 293 289 289 296 295 298 293 291 292 294 294 295 297 297 298 298 298 295 293 292 291 291 290 289 290 290 288 288 289 291 293 293 292 291 291 291 292 291 288 287 286 286 287
285 284 281 286 290 291 291 284 290 291 293 293 291 289 291 292 294 295 297 298 298 297 295 294 295 292 291 290 290 289 289 288 287 287 288 290 293 293 292 291 290 290 290 289 287 286 285 284 284
282 279 280 284 288 287 287 282 288 289 291 292 291 289 290 290 292 294 295 297 296 296 295 294 293 291 290 289 288 288 288 287 287 287 287 289 292 293 292 291 290 290 289 287 288 285 285 284 284
279 278 280 281 285 284 283 284 288 288 288 290 290 290 291 293 294 295 295 296 295 296 296 295 292 291 290 288 287 287 287 287 286 286 287 289 291 293 291 290 290 289 288 287 286 285 284 284 284
281 279 280 281 285 284 283 284 287 287 283 284 286 288 290 292 297 297 296 296 294 294 292 292 290 289 289 287 286 286 286 285 285 285 287 288 291 292 291 290 289 288 288 287 286 284 284 283 283
282 279 279 281 283 282 281 281 283 284 285 286 288 288 289 291 291 292 293 292 292 291 292 289 289 289 289 288 288 286 285 284 284 286 286 287 290 292 291 290 288 287 286 286 285 285 284 283 283
280 280 278 280 280 279 277 279 279 282 283 285 286 289 290 289 289 290 290 291 291 290 290 289 289 288 288 288 287 286 285 284 283 284 284 286 289 291 291 290 288 287 287 286 285 285 285 282 283
277 281 281 280 277 273 276 271 275 281 282 282 285 283 284 286 289 291 291 290 290 290 289 289 288 287 288 288 287 286 285 283 284 284 284 285 287 289 290 290 289 287 287 286 286 286 285 284 282
279 281 280 279 275 273 273 272 274 276 279 283 280 283 282 282 287 289 290 291 291 290 288 288 287 287 288 288 288 286 285 284 283 283 283 283 284 287 289 289 288 287 287 286 286 284 283 283 282
282 279 278 276 273 266 273 274 273 277 280 279 281 281 282 282 284 288 288 289 288 286 287 287 286 286 287 287 287 286 285 283 283 283 282 281 282 283 286 287 286 286 285 284 283 282 282 282 281
278 276 271 267 263 267 272 272 278 281 281 279 280 281 281 280 282 286 286 286 285 285 285 286 285 285 286 286 286 287 285 284 283 283 282 281 281 281 282 283 283 283 283 283 282 282 281 281 281
277 277 272 265 266 270 273 270 276 281 282 281 280 278 281 282 282 283 285 285 285 285 284 285 284 285 285 285 286 286 286 285 284 283 283 282 282 282 282 283 283 283 283 282 282 281 281 280 280
276 274 277 271 265 266 272 274 279 280 279 279 279 279 279 281 281 281 284 284 284 285 284 285 284 285 284 285 285 285 285 285 284 283 283 283 283 283 282 283 282 282 282 282 281 280 280 280 279
276 277 273 271 263 263 270 271 274 276 277 279 278 278 279 282 282 281 284 284 284 285 285 285 285 284 284 285 285 285 285 285 284 284 283 282 283 283 282 282 282 281 281 281 280 279 279 279 279
274 273 273 274 272 267 266 271 277 278 278 278 279 280 281 283 282 282 282 283 284 284 284 284 283 283 283 284 284 284 284 284 284 283 283 283 283 283 282 282 281 281 280 280 279 279 279 279 278
273 274 274 270 268 270 269 272 280 280 279 280 280 282 282 282 283 281 281 281 283 283 283 283 283 283 284 284 284 284 284 284 283 283 283 283 282 282 282 281 281 281 280 279 279 279 279 278 278
Wind_Speed
6 5 2 4 3 3 4 7 3 7 1 2 2 2 2 4 3 5 4 8 11 8 6 8 12 10 12 12 12 11 11 10 10 11 11 9 9 7 7 5 5 4 6 5 6 7 6 5 4
2 2 4 2 4 2 5 5 9 5 3 8 6 1 4 3 2 5 4 6 8 8 8 7 10 12 12 12 12 12 12 12 11 11 11 10 10 9 8 7 7 7 7 7 6 6 5 1 4
1 1 4 4 3 6 4 3 5 2 2 1 2 6 2 1 2 7 1 6 7 5 8 8 10 11 12 11 12 13 12 11 11 11 11 10 10 9 8 8 8 8 8 7 7 6 1 8 9
2 3 4 2 9 6 6 5 4 3 3 3 4 5 3 3 5 4 8 10 9 5 5 9 10 11 12 12 12 12 12 11 11 10 10 10 10 10 9 8 8 7 7 6 6 7 12 11 10
2 3 1 4 7 5 3 3 6 2 4 1 1 3 3 2 3 7 10 10 10 5 3 6 8 11 11 12 12 12 12 11 10 10 10 9 10 10 10 9 8 7 7 6 9 12 12 10 12
1 1 2 7 8 4 4 4 5 5 5 3 6 4 0 1 7 5 10 8 7 7 4 5 4 6 9 11 12 12 12 12 11 10 10 10 9 10 10 10 9 8 9 11 13 12 11 14 13
5 4 5 4 4 5 5 2 4 6 6 5 7 4 2 3 4 5 8 8 7 5 5 4 4 3 8 10 11 12 12 12 12 11 11 10 9 9 10 11 11 13 12 12 11 13 14 14 14
5 4 3 4 5 8 5 4 2 6 7 5 6 7 6 10 12 8 7 7 7 5 5 4 3 4 4 3 10 11 11 12 12 13 11 10 10 9 8 9 12 12 12 14 15 14 14 15 16
4 2 4 6 7 7 3 4 2 3 5 2 4 5 5 16 13 12 7 6 4 5 6 5 5 3 3 3 4 10 12 12 13 10 11 9 4 3 4 10 13 14 13 16 15 13 15 17 18
5 4 9 8 5 5 5 6 7 3 2 4 2 3 8 19 17 19 16 13 9 8 7 7 6 5 5 5 4 3 4 3 4 5 6 4 5 3 4 7 11 11 12 12 16 12 12 10 6
6 8 6 4 4 4 3 1 7 6 6 8 12 9 12 15 15 17 18 20 19 13 8 8 8 6 6 4 3 2 2 3 3 5 5 5 3 3 2 3 3 4 10 4 7 5 4 8 6
4 9 5 3 4 4 4 3 4 7 9 4 7 17 15 17 16 16 15 15 17 16 13 11 10 8 6 4 3 4 3 2 3 3 5 4 3 4 3 3 4 4 4 5 5 3 5 9 9
5 4 5 5 7 5 5 6 4 12 8 2 7 12 17 15 16 15 14 10 12 16 16 12 11 9 7 6 4 4 4 3 3 3 4 4 4 4 4 3 4 4 4 4 5 5 5 8 9
2 3 3 6 5 3 5 2 5 12 7 8 9 13 14 16 17 9 12 14 14 13 17 14 12 10 8 6 5 4 4 4 3 3 4 5 4 4 4 4 4 4 5 4 5 5 6 6 7
1 4 5 7 6 6 5 5 12 13 4 11 10 9 11 16 11 18 16 16 15 13 14 17 13 9 9 8 6 5 5 4 4 3 5 6 5 5 5 4 4 4 4 7 6 6 6 7 6
1 0 4 4 8 5 10 12 12 3 9 12 11 9 11 14 16 14 14 14 13 14 16 13 11 11 9 8 6 5 4 4 4 4 3 5 6 6 5 4 4 4 5 6 6 5 5 5 6
3 6 6 7 9 5 7 5 6 1 7 11 9 10 10 9 11 14 13 14 15 18 19 16 14 14 11 8 6 5 6 4 4 3 3 5 6 6 5 4 4 5 5 5 6 4 6 6 5
8 5 5 6 5 3 4 13 9 8 4 10 10 10 11 16 24 16 15 12 13 15 17 18 16 13 12 8 5 4 4 4 4 4 4 5 4 6 5 4 5 5 6 5 5 6 4 4 5
6 4 6 3 5 5 9 14 14 11 6 11 13 13 16 20 21 15 15 13 12 13 16 18 17 16 12 9 7 5 5 4 3 3 5 5 5 6 6 4 5 5 7 7 8 4 7 3 4
6 5 11 6 4 6 6 14 10 9 10 13 18 19 21 17 9 11 12 14 17 17 17 16 16 15 11 8 6 3 4 2 2 3 4 5 5 6 6 6 5 6 6 7 6 6 4 2 2
7 13 4 8 3 3 5 13 8 10 9 10 15 21 15 14 11 11 14 18 16 18 18 16 16 16 13 10 6 4 4 4 2 3 3 4 5 6 6 6 6 6 5 6 5 5 6 4 1
7 7 6 4 2 5 2 11 6 6 9 7 15 8 11 11 11 11 14 15 19 18 15 17 17 17 15 15 12 10 10 7 4 4 3 4 5 6 6 6 6 6 4 6 5 4 3 4 4
6 5 5 3 3 2 3 3 3 1 8 15 4 7 9 9 9 12 16 19 16 14 15 15 16 16 16 16 14 11 11 5 3 4 7 5 4 6 6 6 6 6 5 6 6 5 4 2 3
8 6 7 5 3 4 9 9 5 6 10 3 1 5 8 9 7 6 5 7 9 9 12 14 16 17 17 16 15 15 13 9 8 8 7 4 4 3 5 6 6 5 6 7 5 5 5 5 3
3 7 1 4 3 9 2 4 13 10 4 1 3 5 7 6 4 6 9 9 9 13 13 13 15 15 15 16 15 15 14 13 12 12 9 9 6 3 6 5 6 4 5 6 6 6 5 5 4
7 8 8 9 6 4 4 9 10 3 5 6 5 2 6 8 5 1 6 7 10 12 13 14 14 14 14 16 15 13 13 9 8 11 9 8 7 6 6 6 6 7 7 6 6 4 4 5 5
7 8 4 7 3 4 6 8 11 4 5 5 7 5 4 5 6 3 5 8 8 11 15 18 16 13 14 15 13 13 12 12 10 11 10 8 7 6 7 8 8 7 7 7 7 5 6 5 4
2 3 4 2 4 5 5 6 8 4 8 7 5 4 2 4 6 4 5 8 8 11 12 12 14 16 15 14 13 12 13 11 10 10 11 10 9 9 9 8 8 7 7 7 7 5 5 6 4
3 3 0 3 5 7 2 8 9 9 9 9 7 3 3 5 4 5 7 7 7 6 9 12 11 13 12 13 12 12 11 12 11 11 11 12 11 10 11 10 9 8 8 7 7 6 7 7 6
1 5 6 6 6 3 3 11 2 10 9 8 4 5 1 3 7 8 9 6 6 8 8 12 11 12 13 13 12 12 11 11 12 11 11 11 11 9 10 9 8 8 7 7 8 8 7 7 7
Wind_Direction
312 329 70 45 75 68 233 243 236 282 291 310 339 289 111 83 162 205 284 126 133 130 129 120 137 145 142 136 139 132 122 117 108 104 96 89 81 74 65 59 48 32 32 37 48 55 60 45 353
339 348 44 77 114 211 257 224 255 228 209 146 121 84 3 97 87 131 101 158 136 131 123 123 138 150 142 139 133 128 123 118 113 103 103 99 96 88 77 72 63 53 48 45 42 43 39 55 99
285 105 104 150 193 209 232 204 238 222 217 228 76 54 57 32 6 157 193 148 105 92 114 126 146 149 141 141 133 128 121 117 114 111 107 105 99 93 87 80 70 62 55 57 51 54 84 73 59
143 31 23 144 237 253 219 281 282 154 274 107 113 45 63 332 156 192 109 113 107 90 102 139 155 149 146 142 134 128 122 119 118 116 114 112 109 104 95 87 81 75 72 73 82 88 67 58 59
53 74 199 236 253 246 227 257 149 141 347 98 116 154 55 2 114 129 109 117 112 90 81 119 152 148 148 146 134 131 126 122 118 116 116 110 108 110 104 98 92 89 91 98 96 78 72 67 65
75 119 187 230 242 256 260 204 150 128 13 -0 72 102 107 274 133 162 114 109 113 114 74 83 108 142 150 145 137 133 130 127 125 120 116 113 107 108 103 103 100 106 115 95 83 85 84 79 72
145 122 216 239 268 289 229 181 189 154 149 215 156 125 184 216 189 133 111 120 116 109 104 80 63 100 141 137 136 135 132 129 129 124 116 112 106 104 107 106 113 98 89 85 93 93 80 77 76
139 125 239 229 214 264 207 166 214 164 207 124 165 181 202 199 166 130 120 122 133 136 130 127 101 91 68 96 134 134 135 137 133 126 118 113 113 111 100 98 109 107 110 104 92 88 84 79 78
138 107 225 220 200 235 183 157 228 331 118 246 193 148 162 146 158 133 143 140 157 161 161 158 158 149 139 123 138 141 141 139 135 138 128 116 102 81 65 105 110 117 108 108 96 95 88 80 73
144 176 217 214 206 222 203 172 181 154 137 240 220 30 148 159 172 162 175 166 174 174 181 175 177 176 180 167 141 143 124 124 132 128 130 120 118 120 81 55 62 75 105 122 102 98 88 70 57
190 217 199 248 209 187 217 214 181 159 221 208 204 171 168 168 180 185 190 178 176 166 171 180 178 181 197 158 166 159 155 146 145 140 138 136 121 104 87 72 71 65 78 63 77 78 72 75 73
187 236 209 224 206 158 201 173 205 193 228 304 208 166 168 183 189 192 200 196 171 160 172 176 176 177 185 160 172 166 155 172 153 151 139 132 130 122 110 108 107 93 87 99 93 80 84 80 71
221 225 219 205 200 198 129 230 204 246 243 129 116 164 184 189 199 202 200 203 194 175 162 182 174 169 169 176 170 174 175 167 162 139 145 136 134 133 131 126 114 102 101 104 90 83 86 81 75
241 201 212 216 218 218 191 217 150 254 192 207 180 192 194 200 202 193 204 197 201 192 176 165 178 171 165 171 174 173 154 157 152 146 147 140 137 134 127 129 118 112 105 95 98 98 85 83 84
141 271 292 227 201 224 142 269 232 243 165 228 217 209 205 212 196 205 205 202 197 192 170 177 164 166 169 171 170 160 162 156 157 163 148 143 142 144 136 128 124 131 115 107 97 85 83 88 82
215 312 249 274 164 226 148 254 265 233 178 230 226 217 218 216 212 212 208 203 195 180 173 150 171 170 170 165 165 160 151 153 163 164 150 147 149 142 138 129 129 133 118 116 107 107 88 87 90
266 234 221 313 194 140 187 252 258 30 196 243 230 228 226 235 234 218 207 202 186 178 167 164 169 177 165 164 154 151 155 157 167 155 158 154 150 150 139 140 141 133 121 115 128 88 109 108 96
196 222 242 214 204 184 223 258 275 268 227 246 253 241 227 230 233 215 203 189 179 178 174 174 174 161 160 154 134 130 145 154 158 168 171 162 158 154 134 138 142 135 129 116 107 114 70 112 119
157 195 222 225 210 199 225 245 251 261 234 256 251 246 235 229 232 215 202 188 175 180 178 177 174 170 161 162 156 158 177 161 167 171 168 167 166 154 143 142 142 143 141 146 136 111 124 86 130
240 257 261 284 227 181 266 264 248 242 241 228 242 243 241 241 215 198 188 181 182 179 182 176 172 167 166 165 162 141 141 157 154 158 168 170 170 161 152 152 155 147 130 141 144 138 125 118 193
221 226 212 232 325 261 340 280 237 255 256 258 248 247 258 235 221 197 185 186 177 184 181 174 172 167 165 163 135 111 89 84 133 174 158 186 173 171 156 160 152 150 141 159 152 147 137 149 213
226 194 180 198 129 247 102 288 293 233 267 264 262 273 263 229 220 202 194 187 188 188 176 173 169 169 166 163 171 171 187 174 183 163 151 162 173 174 164 157 157 155 141 147 154 154 138 132 170
226 151 168 138 155 355 213 310 245 338 272 256 344 323 307 273 212 196 194 196 189 174 175 174 168 171 171 176 180 177 184 162 141 139 149 162 175 172 162 156 153 151 146 146 155 147 159 162 156
144 86 49 54 70 308 186 172 234 192 223 9 44 349 339 338 257 219 191 162 167 156 168 173 173 179 175 178 181 182 181 161 155 160 168 168 165 169 163 151 156 157 146 151 150 146 158 167 152
108 109 320 349 4 233 179 191 259 283 260 259 352 337 338 339 340 172 158 165 159 169 175 176 177 183 179 180 181 182 184 176 174 170 172 169 171 171 173 148 152 151 149 149 142 145 145 154 147
189 167 168 195 200 247 107 228 251 267 151 104 95 306 18 1 20 187 187 175 179 179 180 180 183 182 182 181 185 186 180 176 176 176 171 176 177 171 155 153 152 148 149 146 140 135 136 138 133
183 211 155 101 44 50 221 278 302 168 108 105 96 92 64 350 14 17 188 200 187 184 188 187 184 186 183 185 178 182 178 175 174 172 169 172 159 162 157 160 157 153 153 149 144 140 135 131 131
180 194 102 358 151 234 263 266 228 132 161 145 139 156 68 16 19 349 232 227 211 200 193 190 189 187 185 184 183 183 178 177 166 164 172 169 164 165 161 163 159 156 152 148 139 135 139 130 130
166 199 127 127 159 179 215 256 221 157 163 156 197 140 48 17 342 296 272 246 221 200 185 189 184 181 181 183 181 180 179 169 161 169 172 172 167 168 169 168 160 159 155 151 136 139 143 136 137
256 214 165 142 223 229 151 262 218 148 146 142 167 123 281 295 271 268 270 280 214 199 186 191 183 185 186 184 180 180 167 167 164 173 173 168 170 167 165 157 152 155 156 153 149 152 151 145 146